TimeCDT,TemperatureF,Dew PointF,Humidity,Sea Level PressureIn,VisibilityMPH,Wind Direction,Wind SpeedMPH,Gust SpeedMPH,PrecipitationIn,Events,Conditions,WindDirDegrees,DateUTC
12:15 AM,-9999,-9999,N/A,29.71,10.0,WNW,3.5,-,N/A,,Scattered Clouds,300,2012-10-18 05:15:00
12:35 AM,-9999,-9999,N/A,29.73,10.0,West,6.9,-,N/A,,Mostly Cloudy,280,2012-10-18 05:35:00
12:55 AM,-9999,-9999,N/A,29.74,10.0,NW,11.5,18.4,N/A,,Mostly Cloudy,320,2012-10-18 05:55:00
1:15 AM,-9999,-9999,N/A,29.75,10.0,NNW,5.8,-,N/A,,Clear,340,2012-10-18 06:15:00
1:35 AM,-9999,-9999,N/A,29.75,10.0,Calm,Calm,-,N/A,,Clear,0,2012-10-18 06:35:00
1:55 AM,-9999,-9999,N/A,29.75,10.0,Calm,Calm,-,N/A,,Scattered Clouds,0,2012-10-18 06:55:00
2:15 AM,-9999,-9999,N/A,29.75,10.0,Calm,Calm,-,N/A,,Scattered Clouds,0,2012-10-18 07:15:00
2:35 AM,-9999,-9999,N/A,29.79,10.0,Calm,Calm,-,N/A,,Clear,0,2012-10-18 07:35:00
2:55 AM,-9999,-9999,N/A,29.81,10.0,Calm,Calm,-,N/A,,Clear,0,2012-10-18 07:55:00
3:15 AM,-9999,-9999,N/A,29.81,10.0,Calm,Calm,-,N/A,,Clear,0,2012-10-18 08:15:00
3:35 AM,-9999,-9999,N/A,29.82,10.0,Calm,Calm,-,N/A,,Clear,0,2012-10-18 08:35:00
3:55 AM,-9999,-9999,N/A,29.83,10.0,Calm,Calm,-,N/A,,Clear,0,2012-10-18 08:55:00
4:15 AM,-9999,-9999,N/A,29.84,10.0,Calm,Calm,-,N/A,,Clear,0,2012-10-18 09:15:00
4:35 AM,-9999,-9999,N/A,29.85,10.0,Calm,Calm,-,N/A,,Clear,0,2012-10-18 09:35:00
4:55 AM,-9999,-9999,N/A,29.86,5.0,Calm,Calm,-,N/A,,Haze,0,2012-10-18 09:55:00
5:15 AM,-9999,-9999,N/A,29.88,2.0,Calm,Calm,-,N/A,,Clear,0,2012-10-18 10:15:00
5:35 AM,-9999,-9999,N/A,29.87,4.0,Calm,Calm,-,N/A,,Haze,0,2012-10-18 10:35:00
5:55 AM,-9999,-9999,N/A,29.87,3.0,Calm,Calm,-,N/A,,Clear,0,2012-10-18 10:55:00
6:15 AM,-9999,-9999,N/A,29.86,1.2,Calm,Calm,-,N/A,,Mist,0,2012-10-18 11:15:00
6:35 AM,-9999,-9999,N/A,29.86,2.0,Calm,Calm,-,N/A,,Clear,0,2012-10-18 11:35:00
6:55 AM,-9999,-9999,N/A,29.87,1.0,Calm,Calm,-,N/A,,Mist,0,2012-10-18 11:55:00
7:15 AM,-9999,-9999,N/A,29.87,2.0,Calm,Calm,-,N/A,,Clear,0,2012-10-18 12:15:00
7:35 AM,-9999,-9999,N/A,29.88,2.0,Calm,Calm,-,N/A,,Clear,0,2012-10-18 12:35:00
7:55 AM,-9999,-9999,N/A,29.88,1.2,Calm,Calm,-,N/A,,Mist,0,2012-10-18 12:55:00
8:15 AM,-9999,-9999,N/A,29.89,7.0,Calm,Calm,-,N/A,,Clear,0,2012-10-18 13:15:00
8:35 AM,-9999,-9999,N/A,29.90,10.0,Calm,Calm,-,N/A,,Clear,0,2012-10-18 13:35:00
8:55 AM,-9999,-9999,N/A,29.91,10.0,Calm,Calm,-,N/A,,Clear,0,2012-10-18 13:55:00
9:15 AM,66.6,58.6,76,29.91,10.0,Calm,Calm,-,N/A,,Clear,0,2012-10-18 14:15:00
9:35 AM,68.9,56.1,64,29.92,10.0,Calm,Calm,-,N/A,,Clear,0,2012-10-18 14:35:00
9:55 AM,69.8,51.8,53,29.92,10.0,Calm,Calm,-,N/A,,Clear,0,2012-10-18 14:55:00
10:15 AM,71.4,48.9,45,29.92,10.0,Calm,Calm,-,N/A,,Clear,0,2012-10-18 15:15:00
10:35 AM,72.7,47.1,40,29.92,10.0,Calm,Calm,-,N/A,,Clear,0,2012-10-18 15:35:00
10:55 AM,73.2,50.7,45,29.92,10.0,Calm,Calm,-,N/A,,Clear,0,2012-10-18 15:55:00
11:15 AM,74.5,49.1,41,29.93,10.0,WSW,5.8,-,N/A,,Clear,240,2012-10-18 16:15:00
11:35 AM,75.4,47.3,37,29.93,10.0,WSW,5.8,-,N/A,,Clear,250,2012-10-18 16:35:00
11:55 AM,76.3,44.4,32,29.94,10.0,Calm,Calm,-,N/A,,Clear,0,2012-10-18 16:55:00
12:15 PM,77.2,45.1,32,29.93,10.0,WNW,6.9,-,N/A,,Clear,290,2012-10-18 17:15:00
12:35 PM,77.2,43.3,30,29.92,10.0,WNW,4.6,-,N/A,,Clear,290,2012-10-18 17:35:00
12:55 PM,77.4,42.8,29,29.92,10.0,WNW,8.1,-,N/A,,Clear,300,2012-10-18 17:55:00
1:15 PM,78.6,40.1,25,29.92,10.0,WNW,9.2,-,N/A,,Clear,300,2012-10-18 18:15:00
1:35 PM,78.3,36.7,22,29.91,10.0,NW,4.6,-,N/A,,Clear,310,2012-10-18 18:35:00
1:55 PM,78.8,37.0,22,29.90,10.0,NW,8.1,-,N/A,,Clear,310,2012-10-18 18:55:00
2:15 PM,79.2,38.8,24,29.90,10.0,NW,12.7,-,N/A,,Clear,310,2012-10-18 19:15:00
2:35 PM,79.0,41.2,26,29.89,10.0,NW,5.8,-,N/A,,Clear,310,2012-10-18 19:35:00
2:55 PM,79.3,41.0,25,29.89,10.0,WNW,11.5,-,N/A,,Clear,290,2012-10-18 19:55:00
3:15 PM,79.2,41.2,26,29.88,10.0,West,6.9,-,N/A,,Clear,270,2012-10-18 20:15:00
3:35 PM,79.0,39.4,24,29.88,10.0,West,8.1,-,N/A,,Clear,270,2012-10-18 20:35:00
3:55 PM,79.0,39.2,24,29.88,10.0,West,10.4,-,N/A,,Clear,260,2012-10-18 20:55:00
4:15 PM,78.1,38.1,24,29.87,10.0,Calm,Calm,-,N/A,,Clear,0,2012-10-18 21:15:00
4:35 PM,77.9,38.3,24,29.87,10.0,West,10.4,17.3,N/A,,Clear,270,2012-10-18 21:35:00
4:55 PM,77.4,39.0,25,29.87,10.0,West,4.6,-,N/A,,Clear,270,2012-10-18 21:55:00
5:15 PM,76.5,40.5,27,29.88,10.0,West,5.8,-,N/A,,Clear,280,2012-10-18 22:15:00
5:35 PM,75.2,39.2,27,29.88,10.0,WNW,4.6,-,N/A,,Clear,290,2012-10-18 22:35:00
5:55 PM,73.6,41.4,31,29.88,10.0,Calm,Calm,-,N/A,,Clear,0,2012-10-18 22:55:00
6:15 PM,67.3,51.8,58,29.88,10.0,Calm,Calm,-,N/A,,Clear,0,2012-10-18 23:15:00
6:35 PM,63.1,51.8,66,29.89,10.0,Calm,Calm,-,N/A,,Clear,0,2012-10-18 23:35:00
6:55 PM,61.2,50.2,67,29.89,10.0,Calm,Calm,-,N/A,,Clear,0,2012-10-18 23:55:00
7:15 PM,59.4,49.8,71,29.89,10.0,Calm,Calm,-,N/A,,Clear,0,2012-10-19 00:15:00
7:35 PM,58.1,49.6,73,29.91,10.0,Calm,Calm,-,N/A,,Clear,0,2012-10-19 00:35:00
7:55 PM,57.2,49.6,76,29.91,10.0,Calm,Calm,-,N/A,,Clear,0,2012-10-19 00:55:00
8:15 PM,56.8,49.5,76,29.91,10.0,Calm,Calm,-,N/A,,Clear,0,2012-10-19 01:15:00
8:35 PM,54.7,50.0,84,29.91,10.0,Calm,Calm,-,N/A,,Clear,0,2012-10-19 01:35:00
8:55 PM,55.4,49.1,79,29.91,10.0,Calm,Calm,-,N/A,,Clear,0,2012-10-19 01:55:00
9:15 PM,55.0,48.9,80,29.91,10.0,Calm,Calm,-,N/A,,Clear,0,2012-10-19 02:15:00
9:35 PM,54.5,48.4,80,29.91,10.0,Calm,Calm,-,N/A,,Clear,0,2012-10-19 02:35:00
9:55 PM,54.5,48.2,79,29.92,10.0,Calm,Calm,-,N/A,,Clear,0,2012-10-19 02:55:00
10:15 PM,54.7,47.7,77,29.93,10.0,Calm,Calm,-,N/A,,Clear,0,2012-10-19 03:15:00
10:35 PM,53.6,47.5,80,29.93,10.0,Calm,Calm,-,N/A,,Clear,0,2012-10-19 03:35:00
10:55 PM,54.0,47.8,80,29.93,10.0,Calm,Calm,-,N/A,,Clear,0,2012-10-19 03:55:00